Regional Weather Roundup
Issued by NWS

Home | Current Version | Previous Version | Graphics & Text | Print | Product List | Glossary On
Versions: 1 2 3 4 5 6 7 8 9 10 11 12 13 14 15 16 17 18 19 20 21 22 23 24 25 26 27 28 29 30 31 32 33 34 35 36 37 38 39 40 41 42 43 44 45 46 47 48 49 50
000
ASUS45 KBOI 270910
RWRID
WEATHER ROUNDUP FOR IDAHO
NATIONAL WEATHER SERVICE BOISE ID
300 AM MDT WED AUG 27 2014

NOTE: "FAIR" INDICATES FEW OR NO CLOUDS BELOW 12000 FEET
WITH NO SIGNIFICANT WEATHER AND/OR OBSTRUCTIONS TO VISIBILITY

IDZ012-014-271000-
SOUTHWEST IDAHO


CITY           SKY/WX    TMP DP  RH WIND       PRES   REMARKS
BOISE          CLEAR     65  47  52 SE8       30.07S
CALDWELL       CLEAR     57  43  58 N3        30.08R
MOUNTAIN HOME  CLEAR     59  44  57 E6        30.09S
$$

IDZ016-017-271000-
SOUTHCENTRAL IDAHO


CITY           SKY/WX    TMP DP  RH WIND       PRES   REMARKS
BURLEY         CLEAR     56  48  74 S5        30.15R
JEROME         CLEAR     56  48  74 E5        30.15F
TWIN FALLS     CLEAR     63  47  55 S13       30.14S
$$

IDZ019>023-271000-
SOUTHEAST IDAHO


CITY           SKY/WX    TMP DP  RH WIND       PRES   REMARKS
IDAHO FALLS    CLEAR     50  46  86 CALM      30.19R
POCATELLO      CLEAR     55  52  89 SW6       30.18S
REXBURG        CLEAR     48  45  89 NE3       30.19S
$$

IDZ006-010-011-018-031-032-271000-
CENTRAL IDAHO MOUNTAINS


CITY           SKY/WX    TMP DP  RH WIND       PRES   REMARKS
MCCALL         CLEAR     47  38  71 CALM      30.19S
HAILEY         CLEAR     50  43  76 NW9       30.25R
STANLEY          N/A     39  37  92 CALM      30.30S
SALMON         CLEAR     50  46  87 CALM      30.18R
CHALLIS        CLEAR     51  43  74 CALM      30.22R
$$

IDZ002-004-006-007-026-271000-
NORTHERN IDAHO


CITY           SKY/WX    TMP DP  RH WIND       PRES   REMARKS
LEWISTON       CLEAR     65  44  46 SE5       30.01S
LOWELL           N/A     54  51  90 NW3       30.11R
COEUR D`ALENE  CLEAR     57  48  72 E3        30.04S
MULLAN PASS    CLEAR     58  38  47 W5        30.22F
$$


USA.gov is the U.S. government's official web portal to all federal, state and local government web resources and services.